Valgardena — ICKG — position and weather

sailwx.info

Track history (hours):
 
Tides and Currents Weather Stations Pressure Air Temp Water Temp Dewpoint Dewpoint Depression Visibility Wind Speed Wind Dir Waves Ship Positions

Valgardena

Last reported at 2014-Jul-22 04:33 UTC. Time now 2014-Jul-24 00:22 UTC.
Position N 35°53' E 014°47'.

Length 184 m; draft 9.2 m.

Type: Ship. MMSI: 247243800.

Date/timePositionNaut miles runAvg speedWind from/ knotsBaromVisibWave heightAir tempDewpointWater temp
2014-Jul-22 04:33N 35°53' E 014°47'1 0.9
2014-Jul-22 03:31N 35°52' E 014°47'0 0.0
2014-Jul-22 02:31N 35°52' E 014°47'0 0.1
2014-Jul-22 01:31N 35°52' E 014°47'5 5.7
2014-Jul-22 00:33N 35°49' E 014°42'8 7.5
2014-Jul-21 23:34N 35°49' E 014°33'0 0.0
2014-Jul-21 22:31N 35°49' E 014°33'0 0.0
2014-Jul-21 21:31N 35°49' E 014°33'0 0.0
2014-Jul-21 19:16N 35°49' E 014°33'0 0.0
2014-Jul-21 15:25N 35°49' E 014°33'0 0.0
2014-Jul-21 12:13N 35°49' E 014°33'0 0.0
2014-Jul-21 11:31N 35°49' E 014°33'0 0.0
2014-Jul-21 10:22N 35°49' E 014°33'0 0.0
2014-Jul-21 09:19N 35°49' E 014°33'0 0.0
2014-Jul-21 08:28N 35°49' E 014°33'0 0.0
2014-Jul-21 02:25N 35°49' E 014°33'0 0.0
2014-Jul-20 22:19N 35°49' E 014°33'0 0.0
2014-Jul-20 19:31N 35°49' E 014°33'0 0.0
2014-Jul-20 18:31N 35°49' E 014°33'0 0.0
2014-Jul-20 17:31N 35°49' E 014°33'0 0.0
2014-Jul-20 16:31N 35°49' E 014°33'0 0.0
2014-Jul-20 15:28N 35°49' E 014°33'0 0.0
2014-Jul-20 14:04N 35°49' E 014°33'0 0.0
2014-Jul-20 13:31N 35°49' E 014°33'0 0.0
2014-Jul-20 12:31N 35°49' E 014°33'0 0.0
2014-Jul-20 11:18N 35°49' E 014°33'3 3.5
2014-Jul-20 10:34N 35°47' E 014°35'1110.6
2014-Jul-20 09:33N 35°41' E 014°46'1212.0
2014-Jul-20 08:34N 35°34' E 014°58'6 6.0
2014-Jul-20 07:33N 35°30' E 015°03'0 0.1
2014-Jul-20 06:33N 35°30' E 015°03'0 0.4
2014-Jul-20 05:33N 35°29' E 015°02'7 6.9
2014-Jul-20 04:33N 35°23' E 015°02'1313.0
2014-Jul-20 03:34N 35°10' E 014°57'1413.3
2014-Jul-20 02:31N 34°58' E 014°50'2913.3
2014-Jul-20 00:20N 34°31' E 014°35'1013.0
2014-Jul-19 23:34N 34°22' E 014°29'1512.8
2014-Jul-19 22:24N 34°09' E 014°21'33 6.9
2014-Jul-19 17:33N 33°38' E 014°08'1110.4
2014-Jul-19 16:31N 33°27' E 014°11'  
Track history (hours):
 
Tides and Currents Weather Stations Pressure Air Temp Water Temp Dewpoint Dewpoint Depression Visibility Wind Speed Wind Dir Waves Ship Positions

Valgardena

Last reported at 2014-Jul-22 04:33 UTC. Time now 2014-Jul-24 00:22 UTC.
Position N 35°53' E 014°47'.

Length 184 m; draft 9.2 m.

Type: Ship. MMSI: 247243800.

Date/timePositionNaut miles runAvg speedWind from/ knotsBaromVisibWave heightAir tempDewpointWater temp
2014-Jul-22 04:33N 35°53' E 014°47'1 0.9
2014-Jul-22 03:31N 35°52' E 014°47'0 0.0
2014-Jul-22 02:31N 35°52' E 014°47'0 0.1
2014-Jul-22 01:31N 35°52' E 014°47'5 5.7
2014-Jul-22 00:33N 35°49' E 014°42'8 7.5
2014-Jul-21 23:34N 35°49' E 014°33'0 0.0
2014-Jul-21 22:31N 35°49' E 014°33'0 0.0
2014-Jul-21 21:31N 35°49' E 014°33'0 0.0
2014-Jul-21 19:16N 35°49' E 014°33'0 0.0
2014-Jul-21 15:25N 35°49' E 014°33'0 0.0
2014-Jul-21 12:13N 35°49' E 014°33'0 0.0
2014-Jul-21 11:31N 35°49' E 014°33'0 0.0
2014-Jul-21 10:22N 35°49' E 014°33'0 0.0
2014-Jul-21 09:19N 35°49' E 014°33'0 0.0
2014-Jul-21 08:28N 35°49' E 014°33'0 0.0
2014-Jul-21 02:25N 35°49' E 014°33'0 0.0
2014-Jul-20 22:19N 35°49' E 014°33'0 0.0
2014-Jul-20 19:31N 35°49' E 014°33'0 0.0
2014-Jul-20 18:31N 35°49' E 014°33'0 0.0
2014-Jul-20 17:31N 35°49' E 014°33'0 0.0
2014-Jul-20 16:31N 35°49' E 014°33'0 0.0
2014-Jul-20 15:28N 35°49' E 014°33'0 0.0
2014-Jul-20 14:04N 35°49' E 014°33'0 0.0
2014-Jul-20 13:31N 35°49' E 014°33'0 0.0
2014-Jul-20 12:31N 35°49' E 014°33'0 0.0
2014-Jul-20 11:18N 35°49' E 014°33'3 3.5
2014-Jul-20 10:34N 35°47' E 014°35'1110.6
2014-Jul-20 09:33N 35°41' E 014°46'1212.0
2014-Jul-20 08:34N 35°34' E 014°58'6 6.0
2014-Jul-20 07:33N 35°30' E 015°03'0 0.1
2014-Jul-20 06:33N 35°30' E 015°03'0 0.4
2014-Jul-20 05:33N 35°29' E 015°02'7 6.9
2014-Jul-20 04:33N 35°23' E 015°02'1313.0
2014-Jul-20 03:34N 35°10' E 014°57'1413.3
2014-Jul-20 02:31N 34°58' E 014°50'2913.3
2014-Jul-20 00:20N 34°31' E 014°35'1013.0
2014-Jul-19 23:34N 34°22' E 014°29'1512.8
2014-Jul-19 22:24N 34°09' E 014°21'33 6.9
2014-Jul-19 17:33N 33°38' E 014°08'1110.4
2014-Jul-19 16:31N 33°27' E 014°11'  

Dump ship's entire track history